SpeedTest


Welcome to YZU public FTP

Department of Computer Science and Engineering, Yuan Ze University, Taiwan, R.O.C

- The open source projects mirroring project

[ICO]NameLast modifiedSize
[PARENTDIR]Parent Directory  -
[   ]apl2017-03-18 00:27 16M
[   ]apl-1.0-0.i386.rpm2013-10-13 23:44 756K
[   ]apl-1.0-0.i386.rpm.sig2013-10-13 23:44 287
[   ]apl-1.0-0.src.rpm2013-10-13 23:44 732K
[   ]apl-1.0-0.src.rpm.sig2013-10-13 23:44 287
[   ]apl-1.0.tar.gz2013-10-13 23:45 730K
[   ]apl-1.0.tar.gz.sig2013-10-13 23:45 287
[   ]apl-1.1-0.i386.rpm2013-11-05 20:42 765K
[   ]apl-1.1-0.i386.rpm.sig2013-11-05 20:42 287
[   ]apl-1.1-0.src.rpm2013-11-05 20:42 737K
[   ]apl-1.1-0.src.rpm.sig2013-11-05 20:42 287
[   ]apl-1.1.tar.gz2013-11-05 20:43 735K
[   ]apl-1.1.tar.gz.sig2013-11-05 20:43 287
[   ]apl-1.2-0.i486.rpm2014-01-14 02:53 1.7M
[   ]apl-1.2-0.i486.rpm.sig2014-01-14 02:53 287
[   ]apl-1.2-0.src.rpm2014-01-14 02:54 1.0M
[   ]apl-1.2-0.src.rpm.sig2014-01-14 02:54 287
[   ]apl-1.2.tar.gz2014-01-14 02:54 1.0M
[   ]apl-1.2.tar.gz.sig2014-01-14 02:54 287
[   ]apl-1.3-0.i486.rpm2014-03-28 00:27 2.5M
[   ]apl-1.3-0.i486.rpm.sig2014-03-28 00:27 287
[   ]apl-1.3-0.src.rpm2014-03-28 00:28 1.4M
[   ]apl-1.3-0.src.rpm.sig2014-03-28 00:28 287
[   ]apl-1.3.tar.gz2014-03-28 00:28 1.4M
[   ]apl-1.3.tar.gz.sig2014-03-28 00:28 287
[   ]apl-1.4-0.i486.rpm2014-08-07 23:38 5.9M
[   ]apl-1.4-0.i486.rpm.sig2014-08-07 23:38 287
[   ]apl-1.4-0.src.rpm2014-08-10 17:05 2.4M
[   ]apl-1.4-0.src.rpm.sig2014-08-10 17:05 287
[   ]apl-1.4-0.x86_64.rpm2014-08-08 00:08 5.2M
[   ]apl-1.4-0.x86_64.rpm.sig2014-08-08 00:08 287
[   ]apl-1.4.tar.gz2014-08-08 00:09 2.4M
[   ]apl-1.4.tar.gz.sig2014-08-08 00:09 287
[   ]apl-1.5-0.i486.rpm2015-03-30 01:56 5.4M
[   ]apl-1.5-0.i486.rpm.sig2015-03-30 01:56 287
[   ]apl-1.5-0.src.rpm2015-03-30 01:57 2.8M
[   ]apl-1.5-0.src.rpm.sig2015-03-30 01:57 287
[   ]apl-1.5-0.x86_64.rpm2015-04-03 18:27 5.2M
[   ]apl-1.5-0.x86_64.rpm.sig2015-04-03 18:27 287
[   ]apl-1.5.tar.gz2015-03-30 01:58 2.8M
[   ]apl-1.5.tar.gz.sig2015-03-30 01:58 287
[   ]apl-1.6-0.i386.rpm2016-08-28 22:21 5.7M
[   ]apl-1.6-0.i386.rpm.sig2016-08-28 22:21 287
[   ]apl-1.6-0.src.rpm2016-08-28 22:22 2.8M
[   ]apl-1.6-0.src.rpm.sig2016-08-28 22:22 287
[   ]apl-1.6-0.x86_64.rpm2016-08-28 22:24 5.2M
[   ]apl-1.6-0.x86_64.rpm.sig2016-08-28 22:24 287
[   ]apl-1.6.tar.gz2016-08-28 22:25 2.8M
[   ]apl-1.6.tar.gz.sig2016-08-28 22:25 287
[   ]apl-1.6a.tar.gz2016-09-05 17:48 2.8M
[   ]apl-1.6a.tar.gz.sig2016-09-05 17:48 287
[   ]apl-1.7-0.i386.rpm2017-03-18 00:30 5.7M
[   ]apl-1.7-0.i386.rpm.sig2017-03-18 00:30 287
[   ]apl-1.7-0.src.rpm2017-03-18 00:31 2.9M
[   ]apl-1.7-0.src.rpm.sig2017-03-18 00:31 287
[   ]apl-1.7-0.x86_64.rpm2017-03-18 00:33 4.9M
[   ]apl-1.7-0.x86_64.rpm.sig2017-03-18 00:33 287
[   ]apl-1.7.tar.gz2017-03-18 00:34 2.9M
[   ]apl-1.7.tar.gz.sig2017-03-18 00:34 287
[   ]apl.exe2017-03-18 00:41 20M
[   ]apl.exe.sig2017-03-18 00:41 287
[   ]apl.sig2017-03-18 00:41 287
[   ]apl_1.0-1.debian.tar.gz2013-10-13 23:45 9.3K
[   ]apl_1.0-1.debian.tar.gz.sig2013-10-13 23:45 287
[   ]apl_1.0-1_i386.deb2013-10-13 23:45 680K
[   ]apl_1.0-1_i386.deb.sig2013-10-13 23:45 287
[   ]apl_1.1-1.debian.tar.gz2013-11-05 20:43 9.3K
[   ]apl_1.1-1.debian.tar.gz.sig2013-11-05 20:43 287
[   ]apl_1.1-1_i386.deb2013-11-05 20:43 689K
[   ]apl_1.1-1_i386.deb.sig2013-11-05 20:43 287
[   ]apl_1.2-1.debian.tar.gz2014-01-14 02:54 9.7K
[   ]apl_1.2-1.debian.tar.gz.sig2014-01-14 02:54 287
[   ]apl_1.2-1_i386.deb2014-01-14 02:55 939K
[   ]apl_1.2-1_i386.deb.sig2014-01-14 02:55 287
[   ]apl_1.3-1.debian.tar.gz2014-03-28 00:35 9.7K
[   ]apl_1.3-1.debian.tar.gz.sig2014-03-28 00:35 287
[   ]apl_1.3-1_i386.deb2014-03-28 00:35 1.4M
[   ]apl_1.3-1_i386.deb.sig2014-03-28 00:35 287
[   ]apl_1.4-1.debian.tar.gz2014-08-08 00:17 9.9K
[   ]apl_1.4-1.debian.tar.gz.sig2014-08-08 00:17 287
[   ]apl_1.4-1_amd64.deb2014-08-08 00:17 1.6M
[   ]apl_1.4-1_amd64.deb.sig2014-08-08 00:17 287
[   ]apl_1.4-1_i386.deb2014-08-10 17:02 1.5M
[   ]apl_1.4-1_i386.deb.sig2014-08-10 17:02 287
[   ]apl_1.5-1.debian.tar.gz2015-03-30 01:59 11K
[   ]apl_1.5-1.debian.tar.gz.sig2015-03-30 01:59 287
[   ]apl_1.5-1_amd64.deb2015-04-03 18:28 1.7M
[   ]apl_1.5-1_amd64.deb.sig2015-04-03 18:28 287
[   ]apl_1.5-1_i386.deb2015-03-30 01:59 1.4M
[   ]apl_1.5-1_i386.deb.sig2015-03-30 01:59 287
[   ]apl_1.6-1.debian.tar.gz2016-08-28 22:33 11K
[   ]apl_1.6-1.debian.tar.gz.sig2016-08-28 22:33 287
[   ]apl_1.6-1_amd64.deb2016-08-28 22:34 1.8M
[   ]apl_1.6-1_amd64.deb.sig2016-08-28 22:34 287
[   ]apl_1.6-1_i386.deb2016-08-28 22:35 1.4M
[   ]apl_1.6-1_i386.deb.sig2016-08-28 22:35 287
[   ]apl_1.7-1.debian.tar.gz2017-03-18 00:41 10K
[   ]apl_1.7-1.debian.tar.gz.sig2017-03-18 00:41 287
[   ]apl_1.7-1_amd64.deb2017-03-18 00:42 1.4M
[   ]apl_1.7-1_amd64.deb.sig2017-03-18 00:42 287
[   ]apl_1.7-1_i386.deb2017-03-18 00:43 1.6M
[   ]apl_1.7-1_i386.deb.sig2017-03-18 00:43 287
[   ]README.files2017-03-18 00:21 944
[   ]README.files.sig2017-03-18 00:21 287

If you have any questions or suggestions, please contact administrator via <gro.ollehevadretep [ta] ush>, thank you very much :)